Location: Bremen
(53.0793°N, 8.8017°E)
Time: 01:36:15
(UTC+01:00)

deb Explorer IX - Pass Details

Date: 17 December 2021
Orbit: 544 x 1082 km, 38.8° (Epoch: 16 January)

Event Time Altitude Azimuth Distance (km) Brightness Sun altitude
Rises 05:36:39 0° 221° (SW) 3,798 - -25.0°
Exits shadow 05:39:49 - 207° (SSW) 2,916 ? -24.5°
Reaches altitude 10° 05:40:24 10° 203° (SSW) 2,775 ? -24.4°
Maximum altitude 05:44:33 17° 165° (SSE) 2,187 ? -23.8°
Drops below altitude 10° 05:48:19 10° 127° (SE) 2,540 ? -23.3°
Sets 05:51:42 0° 107° (ESE) 3,390 ? -22.8°
